Home > Weather > Cluj-Napoca > Past weeks

Flag for Romania Past Weather in Cluj-Napoca, Romania — Yesterday and Last 2 Weeks

Now
66 °F

Clear.


Feels Like: 66 °F
Forecast: 62 / 82 °F
Wind: 2 mph from West

Location: Cluj Airport-Napoca

Current Time: Jul 30, 2016 at 12:57:41 AM

Latest Report: Jul 30, 2016 at 12:00 AM


Visibility: 10 mi

Pressure: 29.98 "Hg

Humidity: 94%

Dew Point: 64 °F

Location of Cluj-NapocaLocation

Past Weather in Cluj-Napoca — Graph

°F

Cluj-Napoca Temperature Yesterday

Maximum temperature yesterday: 79 °F (at 12:30 PM)
Minimum temperature yesterday: 64 °F (at 5:00 AM)
Average temperature yesterday: 71 °F

High & Low Weather Summary for the Past Weeks

 TemperatureHumidityPressure
High86 °F (Jul 25, 3:30 PM)100% (Jul 16, 7:00 PM)30.07 "Hg (Jul 16, 7:00 PM)
Low55 °F (Jul 21, 4:00 AM)35% (Jul 25, 7:00 PM)29.86 "Hg (Jul 16, 12:00 PM)
Average69 °F72%30.00 "Hg
* Reported Jul 14 11:00 PM — Jul 29 11:30 PM, Cluj-Napoca, Weather by CustomWeather, © 2016

Note: Actual official high and low records may vary slightly from our data, if they occured in-between our weather recording intervals... More about our weather records

Advertising

Cluj-Napoca Weather History for the Previous 24 Hours

Scroll right to see more
 ConditionsComfort  
Time TempWeatherWind HumidityBarometerVisibility
11:30 PM
Fri, Jul 29
68 °FClear.No wind88%29.98 "Hg10 mi
11:00 PM68 °FClear.3 mph88%29.98 "Hg10 mi
10:30 PM68 °FPassing clouds.No wind88%29.98 "HgN/A
10:00 PM70 °FPassing clouds.2 mph83%29.98 "HgN/A
9:30 PM70 °FPassing clouds.3 mph83%29.98 "HgN/A
9:00 PM72 °FPassing clouds.5 mph78%29.98 "HgN/A
8:30 PM72 °FPassing clouds.No wind78%29.98 "HgN/A
8:00 PM73 °FPassing clouds.1 mph74%29.95 "HgN/A
7:30 PM75 °FPassing clouds.No wind61%29.98 "HgN/A
7:00 PM77 °FSunny.1 mph57%29.98 "Hg10 mi
6:30 PM77 °FSunny.1 mph57%29.95 "Hg10 mi
6:00 PM77 °FSunny.2 mph61%29.95 "Hg10 mi
5:30 PM73 °FSunny.2 mph69%29.95 "Hg10 mi
5:00 PM73 °FPartly sunny.2 mph69%29.98 "HgN/A
4:30 PM72 °FPassing clouds.3 mph73%29.98 "HgN/A
4:00 PM72 °FPassing clouds.2 mph73%29.98 "HgN/A
3:30 PM72 °FScattered clouds.6 mph78%29.98 "HgN/A
3:00 PM72 °FSprinkles. Scattered clouds.9 mph83%29.98 "HgN/A
2:30 PM72 °FThunderstorms. Scattered clouds.7 mph83%30.01 "HgN/A
2:00 PM72 °FThunderstorms. Scattered clouds.9 mph88%30.01 "HgN/A
1:30 PM75 °FThunderstorms. Broken clouds.8 mph74%30.01 "HgN/A
1:00 PM77 °FScattered clouds.7 mph65%29.98 "HgN/A
12:30 PM79 °FThundershowers. Scattered clouds.9 mph61%29.98 "HgN/A
12:00 PM77 °FScattered clouds.6 mph69%30.01 "HgN/A
11:30 AM75 °FScattered clouds.6 mph74%30.01 "HgN/A
11:00 AM75 °FPassing clouds.5 mph74%30.01 "HgN/A
10:30 AM73 °FSunny.5 mph78%30.01 "Hg10 mi
10:00 AM73 °FPassing clouds.3 mph74%30.01 "HgN/A
9:30 AM70 °FPassing clouds.5 mph78%30.01 "HgN/A
9:00 AM68 °FSunny.3 mph83%29.98 "Hg10 mi
8:30 AM68 °FSunny.2 mph78%29.98 "Hg10 mi
8:00 AM66 °FSunny.2 mph83%29.98 "Hg10 mi
7:30 AM64 °FSunny.No wind94%29.98 "Hg10 mi
7:00 AM64 °FClear.2 mph88%29.98 "Hg10 mi
6:30 AM64 °FClear.2 mph88%29.98 "Hg10 mi
6:00 AM64 °FClear.1 mph88%29.98 "Hg10 mi
5:30 AM64 °FClear.2 mph94%29.98 "Hg10 mi
5:00 AM64 °FClear.2 mph94%29.98 "Hg10 mi
4:00 AM66 °FClear.5 mph88%29.98 "Hg10 mi
3:00 AM68 °FClear.5 mph83%29.98 "Hg10 mi
2:00 AM68 °FClear.5 mph88%29.98 "Hg10 mi
1:00 AM70 °FClear.3 mph88%29.98 "Hg10 mi
12:00 AM72 °FClear.6 mph78%29.98 "Hg10 mi
Weather by CustomWeather, © 2016

See weather overviewHow to use our weather pages